Milan, Italy

4:24 PM CEST on August 30, 2016 (GMT +0200)
Malpensa

Weather History for LIMC - October, 2012

Change the Weather History Date:

Monday, October 29, 2012

  Actual Average Record
Temperature  
Mean Temperature 42 °F -  
Max Temperature 55 °F 52 °F 71 °F (2006)
Min Temperature 30 °F 33 °F 21 °F (1997)
Degree Days  
Heating Degree Days 22    
Moisture  
Dew Point 34 °F    
Average Humidity 74    
Maximum Humidity 100    
Minimum Humidity 31    
Precipitation  
Precipitation 0.00 in 0.14 in - ()
Sea Level Pressure  
Sea Level Pressure 29.79 in    
Wind  
Wind Speed 2 mph ()    
Max Wind Speed 5 mph    
Max Gust Speed -    
Visibility 5.9 miles    
Events Fog    
Averages and records for this station are not official NWS values.
T = Trace of Precipitation, MM = Missing Value Source: Averaged Metar Reports

Daily Weather History Graph

Daily Weather History Graph

Search for Another Location

Airport or City:

Trip Planner

Search our weather history database for the weather conditions in past years. The results will help you decide how hot, cold, wet, or windy it might be!

Date:

Astronomy

Oct. 29, 2012 Rise Set
Actual Time 7:00 AM CET 5:15 PM CET
Civil Twilight 6:30 AM CET 5:46 PM CET
Nautical Twilight 5:55 AM CET 6:21 PM CET
Astronomical Twilight 5:20 AM CET 6:55 PM CET
Moon 4:56 PM CET (10/29) 6:36 AM CET (10/29)
Length of Visible Light 11h 16m
Length of Day
10h 14m
Full, 100% of the Moon is Illuminated
Oct 29
Full
Oct 29
Full
Nov 7
Last Quarter
Nov 13
New
Nov 20
First Quarter

Hourly Weather History & Observations

Time (CET) Temp. Windchill Dew Point Humidity Pressure Visibility Wind Dir Wind Speed Gust Speed Precip Events Conditions
12:20 AM 41.0 °F 39.0 °F 39.2 °F 93% 29.71 in 6.2 mi WSW 3.5 mph - N/A   Mostly Cloudy
12:50 AM 41.0 °F - 39.2 °F 93% 29.71 in 6.2 mi Variable 2.3 mph - N/A   Mostly Cloudy
1:20 AM 41.0 °F 39.0 °F 39.2 °F 93% 29.71 in 6.2 mi North 3.5 mph - N/A   Mostly Cloudy
1:50 AM 41.0 °F - 39.2 °F 93% 29.71 in 6.2 mi Calm Calm - N/A   Mostly Cloudy
2:20 AM 39.2 °F - 37.4 °F 93% 29.71 in 6.2 mi Variable 1.2 mph - N/A   Mostly Cloudy
2:50 AM 37.4 °F - 35.6 °F 93% 29.71 in 6.2 mi Variable 1.2 mph - N/A   Scattered Clouds
3:20 AM 35.6 °F - 35.6 °F 100% 29.71 in 6.2 mi Variable 1.2 mph - N/A   Scattered Clouds
3:50 AM 33.8 °F 29.6 °F 33.8 °F 100% 29.74 in 6.2 mi North 4.6 mph - N/A   Mostly Cloudy
4:20 AM 33.8 °F - 33.8 °F 100% 29.74 in 6.2 mi Variable 2.3 mph - N/A   Mostly Cloudy
4:50 AM 35.6 °F - 35.6 °F 100% 29.74 in 6.2 mi Variable 1.2 mph - N/A   Scattered Clouds
5:20 AM 35.6 °F - 35.6 °F 100% 29.74 in 6.2 mi Variable 2.3 mph - N/A   Scattered Clouds
5:50 AM 33.8 °F - 33.8 °F 100% 29.74 in 6.2 mi Variable 2.3 mph - N/A Fog Unknown
6:20 AM 32.0 °F 28.7 °F 32.0 °F 100% 29.74 in 6.2 mi NNE 3.5 mph - N/A Fog Shallow Fog
6:50 AM 30.2 °F - 30.2 °F 100% 29.77 in 1.2 mi Variable 1.2 mph - N/A Fog Shallow Fog
7:20 AM 33.8 °F - 32.0 °F 93% 29.77 in 6.2 mi Variable 2.3 mph - N/A Fog Shallow Fog
7:50 AM 33.8 °F 30.8 °F 33.8 °F 100% 29.80 in 6.2 mi North 3.5 mph - N/A Fog Shallow Fog
8:20 AM 37.4 °F 33.8 °F 35.6 °F 93% 29.80 in 6.2 mi NNE 4.6 mph - N/A Fog Shallow Fog
8:50 AM 41.0 °F - 39.2 °F 93% 29.80 in 6.2 mi Calm Calm - N/A Fog Shallow Fog
9:20 AM 44.6 °F - 37.4 °F 76% 29.80 in 6.2 mi Calm Calm - N/A Fog Unknown
9:50 AM 46.4 °F - 32.0 °F 57% 29.80 in - Variable 2.3 mph - N/A   Clear
10:20 AM 48.2 °F - 35.6 °F 62% 29.80 in - Variable 2.3 mph - N/A   Clear
10:50 AM 50.0 °F - 32.0 °F 50% 29.80 in - Variable 2.3 mph - N/A   Clear
11:20 AM 51.8 °F - 33.8 °F 50% 29.80 in - Variable 2.3 mph - N/A   Clear
11:50 AM 51.8 °F - 33.8 °F 50% 29.80 in - WSW 3.5 mph - N/A   Clear
12:20 PM 53.6 °F - 24.8 °F 33% 29.80 in - WNW 3.5 mph - N/A   Clear
12:50 PM 55.4 °F - 24.8 °F 31% 29.77 in - Variable 2.3 mph - N/A   Clear
1:20 PM 55.4 °F - 32.0 °F 41% 29.77 in - Variable 2.3 mph - N/A   Clear
1:50 PM 55.4 °F - 30.2 °F 38% 29.77 in - SSW 4.6 mph - N/A   Clear
2:20 PM 55.4 °F - 30.2 °F 38% 29.77 in - SSW 4.6 mph - N/A   Clear
2:50 PM 55.4 °F - 32.0 °F 41% 29.77 in - South 3.5 mph - N/A   Clear
3:20 PM 55.4 °F - 32.0 °F 41% 29.77 in - SSE 3.5 mph - N/A   Clear
3:50 PM 53.6 °F - 33.8 °F 47% 29.77 in - SE 4.6 mph - N/A   Clear
4:20 PM 51.8 °F - 33.8 °F 50% 29.80 in - SE 4.6 mph - N/A   Clear
4:50 PM 50.0 °F - 33.8 °F 54% 29.80 in - SE 3.5 mph - N/A   Clear
5:20 PM 48.2 °F - 33.8 °F 58% 29.80 in - Variable 2.3 mph - N/A   Clear
5:50 PM 48.2 °F - 32.0 °F 54% 29.83 in - SE 3.5 mph - N/A   Clear
6:20 PM 46.4 °F - 33.8 °F 62% 29.83 in - Variable 2.3 mph - N/A   Clear
6:50 PM 42.8 °F 41.1 °F 33.8 °F 70% 29.83 in - East 3.5 mph - N/A   Clear
7:20 PM 41.0 °F - 33.8 °F 76% 29.86 in - East 2.3 mph - N/A   Clear
7:50 PM 42.8 °F - 35.6 °F 76% 29.86 in - Variable 2.3 mph - N/A   Clear
8:20 PM 42.8 °F - 35.6 °F 76% 29.86 in - Variable 2.3 mph - N/A   Clear
8:50 PM 37.4 °F - 32.0 °F 81% 29.89 in - Variable 1.2 mph - N/A   Clear
9:20 PM 41.0 °F - 35.6 °F 81% 29.89 in - Variable 2.3 mph - N/A   Clear
9:50 PM 37.4 °F - 32.0 °F 81% 29.89 in - Variable 1.2 mph - N/A   Clear
10:20 PM 33.8 °F - 32.0 °F 93% 29.89 in - ENE 1.2 mph - N/A   Clear
10:50 PM 41.0 °F - 35.6 °F 81% 29.89 in - Variable 2.3 mph - N/A   Clear
11:20 PM 39.2 °F - 33.8 °F 81% 29.89 in - Variable 2.3 mph - N/A   Clear
11:50 PM 35.6 °F 31.7 °F 32.0 °F 87% 29.89 in - NNE 4.6 mph - N/A   Clear